Location: Unspecified
(0.0000°N, 0.0000°E)
Time: 03:04:33
(UTC+02:00)

GPS 2-15 Rocket1 - Visible Passes

Search period start: 19 April 2015 00:00
Search period end: 29 April 2015 00:00
Orbit: 626 x 679 km, 19.8° (Epoch: 18 April)

Date Brightness Start Highest point End Pass type
(mag) Time Alt. Az. Time Alt. Az. Time Alt. Az.
19 Apr 3.1 06:20:41 69° S 06:20:59 71° SSE 06:25:44 10° ENE visible
19 Apr 4.8 20:14:33 10° WSW 20:18:38 27° SSW 20:22:44 10° SE visible
19 Apr 5.8 22:01:49 10° SSW 22:02:14 11° SSW 22:02:14 11° SSW visible
20 Apr 3.3 06:46:04 34° W 06:48:00 59° NNW 06:52:42 10° ENE visible
20 Apr 5.3 20:42:50 10° SW 20:45:51 16° SSW 20:48:52 10° SSE visible
21 Apr 5.4 05:33:44 23° ENE 05:33:44 23° ENE 05:35:33 10° ENE visible
21 Apr 4.3 07:11:26 13° WNW 07:15:04 31° NNW 07:19:17 10° NE visible
21 Apr 5.6 21:12:21 10° SSW 21:13:13 10° S 21:14:00 10° S visible
22 Apr 4.2 05:59:04 40° NNE 05:59:04 40° NNE 06:02:27 10° NE visible
23 Apr 4.4 06:24:22 28° NNW 06:24:47 29° NNW 06:28:57 10° NE visible
24 Apr 6.2 05:11:56 11° NE 05:11:56 11° NE 05:12:08 10° NE visible
24 Apr 5.2 06:49:37 13° NW 06:51:58 17° NNW 06:55:06 10° NNE visible
25 Apr 5.6 05:37:09 17° NNE 05:37:09 17° NNE 05:38:35 10° NE visible
25 Apr 5.6 07:17:58 10° NNW 07:19:16 11° NNW 07:20:29 10° N visible
26 Apr 5.4 06:02:20 16° N 06:02:20 16° N 06:04:41 10° NNE visible
27 Apr 5.7 06:28:13 10° NNW 06:29:01 10° NNW 06:29:44 10° N visible
